Hourly Data Report for December 09, 2018

EUREKA CLIMATE
NUNAVUT
Current Station Operator: ECCC - MSC

79°59'21.000" N
85°56'02.000" W
10.00 m
2401199
71613
NEK

Download Data

Hourly Data (December 2018)
Hourly Data Report for December 9, 2018
TIME
LST
Temp Definition
°C
Dew Point Definition
°C
Rel Hum Definition
%
Precip. Amount Definition
mm

Wind Dir Definition
10's deg

Wind Spd Definition
km/h
Visibility Definition
km
Stn Press Definition
kPa
Hmdx Definition


Wind Chill Definition


Weather Definition


00:00 -22.0 -23.9 84 0.0 13 40   101.00   -37 LegendNANA
01:00 -22.1 -24.0 84 0.0 13 28   101.01   -35 LegendNANA
02:00 -21.5 -23.3 85 0.0 14 38   100.93   -36 LegendNANA
03:00 -21.8 -23.7 85 0.0 13 36   100.90   -36 LegendNANA
04:00 -21.2 -23.0 85 0.0 13 45   100.82   -36 LegendNANA
05:00 -20.9 -22.6 86 0.0 13 46   100.76   -36 LegendNANA
06:00 -20.4 -22.1 86 0.0 14 45   100.70   -35 LegendNANA
07:00 -20.3 -22.0 86 0.0 14 47   100.64   -35 LegendNANA
08:00 -19.9 -21.6 86 0.0 13 46   100.55   -35 LegendNANA
09:00 -19.4 -21.0 87 0.0 14 40   100.54   -33 LegendNANA
10:00 -19.4 -21.1 87 0.0 15 46   100.47   -34 LegendNANA
11:00 -19.1 -20.7 87 0.0 15 43   100.30   -33 LegendNANA
12:00 -18.6 -20.1 88 0.0 15 48   100.26   -33 LegendNANA
13:00 -18.1 -19.6 88 0.0 15 53   100.10   -33 LegendNANA
14:00 -17.7 -19.1 89 0.0 15 59   99.98   -33 LegendNANA
15:00 -17.3 -18.7 89 0.0 15 60   99.87   -33 LegendNANA
16:00 -17.2 -18.6 89 0.0 14 48   99.92   -31 LegendNANA
17:00 -17.3 -18.7 89 0.0 17 55   99.78   -32 LegendNANA
18:00 -17.4 -18.8 89 0.0 18 34   99.86   -30 LegendNANA
19:00 -17.4 -18.8 89 0.0 18 48   99.75   -32 LegendNANA
20:00 -17.3 -18.7 89 0.0 17 53   99.68   -32 LegendNANA
21:00 -17.5 -18.9 89 0.0 17 57   99.64   -33 LegendNANA
22:00 -17.6 -19.0 89 0.0 17 59   99.63   -33 LegendNANA
23:00 -17.5 -18.9 89 0.0 17 66   99.56   -34 LegendNANA

Notes on Data Quality.

Legend

  • E = Estimated
  • M = Missing
  • NA = Not Available*
  • [empty] = Indicates an unobserved value
Date modified: